CW9688 Weather Reports


time (UTC)temp
F
wind
direction
speed
knots
gust
knots
rain 1hr
in
rain 24hr
in
rain mn
in
humidity
%
barometer
mb
20260903200805 88 83 5.2 11.3 0.00 0.13 0.00 21 997.8
20260903195804 88 29 5.2 10.4 0.00 0.13 0.00 21 998.0
20260903194804 87 48 5.2 8.7 0.00 0.13 0.00 22 998.2
20260903194304 87 28 2.6 11.3 0.00 0.13 0.00 21 998.2
20260903193305 87 72 7.8 13.0 0.00 0.13 0.00 22 998.2
20260903192804 87 87 5.2 10.4 0.00 0.13 0.00 23 998.3
20260903191304 86 199 1.7 8.7 0.00 0.13 0.00 25 998.5
20260903190304 87 106 5.2 10.4 0.00 0.13 0.00 22 998.6
20260903185306 87 78 3.5 10.4 0.00 0.13 0.00 23 998.7
20260903184805 87 111 4.3 7.8 0.00 0.13 0.00 25 998.7
20260903184304 87 83 0.9 2.6 0.00 0.13 0.00 25 998.9
20260903183805 86 119 5.2 10.4 0.00 0.13 0.00 24 999.0
20260903182306 85 85 5.2 7.0 0.00 0.13 0.00 24 999.4
20260903181804 86 100 5.2 10.4 0.00 0.13 0.00 25 999.6
20260903181304 86 105 4.3 7.8 0.00 0.13 0.00 27 999.6
20260903180805 84 94 3.5 7.8 0.00 0.13 0.00 28 999.7
20260903175805 84 28 3.5 5.2 0.00 0.13 0.00 24 999.8
20260903174305 83 42 2.6 7.0 0.00 0.13 0.00 26 1000.0
20260903173804 83 58 3.5 7.0 0.00 0.13 0.00 28 1000.1
20260903173304 83 89 4.3 6.1 0.00 0.13 0.00 28 1000.1
20260903172804 82 61 2.6 6.1 0.00 0.13 0.00 28 1000.2
20260903172306 83 92 5.2 10.4 0.00 0.13 0.00 29 1000.2
20260903171805 82 114 6.1 7.8 0.00 0.13 0.00 29 1000.2
20260903151304 71 358 4.3 6.1 0.00 0.13 0.00 48 1000.2
20260903150304 70 183 3.5 5.2 0.00 0.13 0.00 51 1011.2
20260903145804 70 163 2.6 5.2 0.00 0.13 0.00 50 1011.2
20260903144804 69 164 2.6 5.2 0.00 0.13 0.00 54 1011.2
20260903143804 67 175 2.6 6.1 0.00 0.13 0.00 56 1011.2
20260903143304 67 179 3.5 7.8 0.00 0.13 0.00 57 1011.2
20260903142804 66 181 3.5 6.1 0.00 0.13 0.00 58 1011.2
20260903142306 66 154 2.6 7.0 0.00 0.13 0.00 58 1011.2
20260903141304 65 162 2.6 6.1 0.00 0.13 0.00 63 1011.2
20260903140304 64 99 0.9 2.6 0.00 0.13 0.00 66 1011.2
20260903134305 62 181 2.6 5.2 0.00 0.13 0.00 69 1011.2
20260903133804 62 168 1.7 2.6 0.00 0.13 0.00 71 1011.2
20260903132306 60 140 1.7 5.2 0.00 0.13 0.00 74 1011.2
20260903131304 60 173 1.7 4.3 0.00 0.13 0.00 74 1011.2
20260903130304 59 201 0.0 0.9 0.00 0.13 0.00 74 1011.2
20260903124804 59 211 1.7 4.3 0.00 0.13 0.00 76 1011.2
20260903122305 57 196 1.7 2.6 0.00 0.13 0.00 84 1011.2
20260903121804 56 214 1.7 2.6 0.00 0.13 0.00 84 1011.2
20260903120804 57 176 1.7 1.7 0.00 0.13 0.00 84 1011.2
20260903114805 57 211 0.0 1.7 0.00 0.13 0.00 84 1011.2
20260903113804 59 165 0.9 2.6 0.00 0.13 0.00 81 1011.2
20260903113304 58 182 1.7 2.6 0.00 0.13 0.00 83 1011.2
20260903111804 58 211 1.7 2.6 0.00 0.13 0.00 86 1011.2
20260903111304 57 213 1.7 2.6 0.00 0.13 0.00 87 1011.2
20260903110304 57 193 0.0 0.0 0.00 0.13 0.00 88 1011.2
20260903104305 57 193 0.0 0.9 0.00 0.13 0.00 87 1011.2
20260903103304 58 193 1.7 2.6 0.00 0.13 0.00 87 1011.2
20260903102306 58 193 0.0 0.9 0.00 0.13 0.00 87 1011.2
20260903100804 59 176 0.0 1.7 0.00 0.13 0.00 86 1011.2
20260903100304 59 176 2.6 2.6 0.00 0.13 0.00 88 1011.2
20260903095804 58 176 0.0 0.0 0.00 0.13 0.00 87 1011.2
20260903095306 58 176 0.0 0.0 0.00 0.13 0.00 88 1011.2
20260903094805 58 176 0.0 0.0 0.00 0.13 0.00 86 1011.2
20260903094304 59 176 0.0 0.0 0.00 0.13 0.00 86 1011.2
20260903093305 59 176 0.0 0.0 0.00 0.13 0.00 86 1011.2
20260903092306 60 176 0.0 0.9 0.00 0.13 0.00 84 1011.2
20260903091304 60 180 0.9 1.7 0.00 0.13 0.00 86 1011.2
20260903090304 61 180 0.0 0.9 0.00 0.13 0.00 84 1011.2
20260903085804 61 180 0.0 1.7 0.00 0.13 0.00 83 1011.2
20260903084804 61 178 1.7 4.3 0.00 0.13 0.00 83 1011.2
20260903084304 61 182 0.9 2.6 0.00 0.13 0.00 83 1011.2
20260903082804 62 193 0.9 1.7 0.00 0.13 0.00 80 1011.2
20260903082306 62 186 0.9 1.7 0.00 0.13 0.00 79 1011.2
20260903081304 62 179 1.7 4.3 0.00 0.13 0.00 79 1011.2
20260903080804 62 173 1.7 2.6 0.00 0.13 0.00 79 1011.2
20260903080304 62 178 1.7 2.6 0.00 0.13 0.00 80 1011.2
20260903075804 62 156 0.9 1.7 0.00 0.13 0.00 80 1011.2
20260903074804 62 146 2.6 5.2 0.00 0.13 0.00 84 1011.2
20260903073805 62 147 0.0 0.0 0.00 0.13 0.00 86 1011.2
20260903073304 62 147 0.9 1.7 0.00 0.13 0.00 85 1011.2
20260903072804 62 147 0.0 0.9 0.00 0.13 0.00 85 1011.2
20260903070804 62 147 0.0 0.0 0.00 0.13 0.00 87 1011.2
20260903065306 62 147 1.7 1.7 0.00 0.13 0.00 86 1011.2
20260903064805 62 147 0.0 0.0 0.00 0.13 0.00 86 1011.2
20260903064304 62 147 0.0 0.0 0.00 0.13 0.00 86 1011.2
20260903062804 62 130 0.9 1.7 0.00 0.13 0.00 86 1011.2
20260903062306 62 130 0.9 1.7 0.00 0.13 0.00 86 1011.2
20260903061304 62 56 0.9 2.6 0.00 0.13 0.00 87 1011.2
20260903055306 62 156 0.9 1.7 0.00 0.13 0.13 86 1011.2
20260903054804 62 156 0.0 0.9 0.00 0.13 0.13 86 1011.2
20260903054304 63 163 0.0 2.6 0.00 0.13 0.13 84 1011.2
20260903053804 63 143 0.9 2.6 0.00 0.13 0.13 83 1011.2
20260903051304 63 161 2.6 4.3 0.00 0.13 0.13 83 1011.2
20260903050804 63 113 2.6 4.3 0.00 0.13 0.13 83 1011.2
20260903044804 62 213 1.7 2.6 0.00 0.13 0.13 87 1011.2
20260903043804 62 112 1.7 2.6 0.00 0.13 0.13 88 1011.2
20260903042804 62 122 0.0 0.0 0.00 0.13 0.13 87 1011.2
20260903040804 62 30 0.0 0.0 0.09 0.13 0.13 87 1011.2
20260903034804 63 81 2.6 6.1 0.13 0.13 0.13 81 1011.2
20260903032803 62 16 2.6 5.2 0.13 0.13 0.13 85 1013.7
20260903032306 63 56 1.7 4.3 0.13 0.13 0.13 83 1013.7
20260903031804 64 169 4.3 6.1 0.13 0.13 0.13 79 1013.7
20260903031304 65 32 4.3 7.0 0.12 0.12 0.12 75 1013.7
20260903030804 68 185 5.2 8.7 0.04 0.04 0.04 65 1013.7
20260903030304 72 179 5.2 7.8 0.01 0.01 0.01 57 1013.7
20260903024804 73 351 4.3 7.0 0.00 0.00 0.00 46 1013.7
20260903022804 73 350 3.5 10.4 0.00 0.00 0.00 45 1013.7
20260903021804 73 18 6.1 10.4 0.00 0.00 0.00 46 1013.7
20260903015803 75 20 7.8 14.8 0.00 0.00 0.00 43 1013.7
20260903014304 75 8 6.1 11.3 0.00 0.00 0.00 39 1013.7
20260903013804 76 353 6.1 11.3 0.00 0.00 0.00 39 1013.7
20260903012306 76 336 6.1 10.4 0.00 0.00 0.00 37 1013.7
20260903011804 76 346 5.2 10.4 0.00 0.00 0.00 37 1013.7
20260903010805 77 353 5.2 10.4 0.00 0.00 0.00 37 1013.7
20260903005804 78 358 7.8 15.6 0.00 0.00 0.00 36 1013.7
20260903004305 81 331 6.1 12.2 0.00 0.00 0.00 31 1013.7
20260903003804 81 315 7.8 13.9 0.00 0.00 0.00 30 1013.7
20260903002804 82 337 5.2 13.0 0.00 0.00 0.00 29 1013.7
20260903001304 83 314 8.7 17.4 0.00 0.00 0.00 28 1013.7
20260903000303 85 350 6.1 10.4 0.00 0.00 0.00 28 1013.7
20260902235804 85 333 5.2 10.4 0.00 0.00 0.00 29 1013.7
20260902234803 84 345 5.2 10.4 0.00 0.00 0.00 31 1013.7
20260902233304 85 5 3.5 8.7 0.00 0.00 0.00 28 1013.7
20260902232306 85 60 2.6 5.2 0.00 0.00 0.00 28 1013.7
20260902231804 85 56 1.7 6.1 0.00 0.00 0.00 28 1013.7
20260902231304 85 51 2.6 5.2 0.00 0.00 0.00 28 1013.7
20260902230804 85 60 1.7 6.1 0.00 0.00 0.00 27 1013.7
20260902230304 86 95 1.7 6.1 0.00 0.00 0.00 27 1013.7
20260902225804 86 105 3.5 7.8 0.00 0.00 0.00 27 1013.7
20260902224304 86 130 5.2 11.3 0.00 0.00 0.00 26 1013.7
20260902223804 87 96 8.7 12.2 0.00 0.00 0.00 25 1013.7
20260902223304 89 117 7.8 13.0 0.00 0.00 0.00 24 1013.7
20260902222804 89 122 5.2 17.4 0.00 0.00 0.00 25 1013.7
20260902220804 89 103 4.3 12.2 0.00 0.00 0.00 24 1013.7
20260902215804 89 68 6.1 11.3 0.00 0.00 0.00 24 1013.7
20260902213804 90 113 7.0 11.3 0.00 0.00 0.00 23 1013.7
20260902213304 90 154 5.2 8.7 0.00 0.00 0.00 21 1013.7
20260902212804 89 95 6.1 13.0 0.00 0.00 0.00 26 1013.7
20260902212306 88 85 4.3 8.7 0.00 0.00 0.00 24 1013.7
20260902211804 88 89 6.1 12.2 0.00 0.00 0.00 25 1013.7
20260902210304 90 74 7.8 12.2 0.00 0.00 0.00 23 1013.7
20260902205306 88 102 5.2 11.3 0.00 0.00 0.00 24 1013.7
20260902204804 90 113 2.6 10.4 0.00 0.00 0.00 23 1013.7
20260902204304 89 144 7.0 11.3 0.00 0.00 0.00 24 1013.7
20260902203804 89 130 7.0 13.9 0.00 0.00 0.00 22 1013.7
20260902203304 89 111 5.2 12.2 0.00 0.00 0.00 25 1013.7
20260902202306 88 119 4.3 10.4 0.00 0.00 0.00 22 1013.7
20260902201804 86 72 4.3 13.0 0.00 0.00 0.00 23 1013.7